[[{"header":{"parameterUnit":"m.s-1","parameterCategory":1,"la1":30.2991,"la2":30.254,"lo1":-89.0895,"lo2":-89.0444,"dy":0.0017,"dx":0.0017,"nx":28,"ny":28,"refTime":"2024-04-23T03:00:00:Z","depth":0,"parameterNumber":2,"parameterNumberName":"U-component_of_WINDS"},"data":[0,0,0,0,0,0,0,0,0,0,0,0,0,0,0,0,0,0,0,0,0,0,0,0,0,0,0,0,0,0,0,0,0,0,0,0,0,0,0,0,0,0,0,0,0,0,0,0,0,0,0,0,0,0,0,0,0,0,-0.0174,-0.0174,0,-0.0171,-0.0171,-0.017,-0.018,-0.018,-0.0181,-0.0181,-0.0177,-0.0177,-0.0176,0,0,0,0,0,0,0,0,0,0,0,0,0,-0.0187,-0.0186,-0.0174,-0.0174,-0.0174,-0.0171,-0.0171,-0.017,-0.018,-0.018,-0.0181,-0.0181,-0.0177,-0.0177,-0.0176,0,0,0,0,0,0,0,0,0,0,0,0,0,-0.0182,-0.0186,-0.0174,-0.0178,-0.0178,-0.0171,-0.0171,-0.017,-0.018,-0.018,-0.0181,-0.0181,-0.0177,-0.0177,-0.0176,-0.0164,0,0,-0.0174,-0.0174,0,0,0,0,0,0,0,0,-0.0182,-0.0182,-0.0177,-0.0178,-0.0178,-0.0176,-0.0174,-0.0168,-0.018,-0.0179,-0.0181,-0.0182,-0.0176,-0.0176,-0.0174,-0.0163,-0.0163,-0.0174,-0.0174,-0.0174,-0.0174,0,0,0,0,0,0,0,-0.0183,-0.0182,-0.0172,-0.0177,-0.0178,-0.018,-0.018,-0.0173,-0.0175,-0.0179,-0.018,-0.018,-0.0177,-0.0175,-0.0174,-0.0163,-0.0174,-0.0174,-0.0173,-0.0173,-0.0141,-0.0141,0,0,0,0,0,0,-0.0183,-0.0182,-0.0172,-0.0172,-0.0181,-0.0179,-0.0179,-0.0176,-0.0175,-0.0176,-0.0179,-0.018,-0.0176,-0.0175,-0.0174,-0.0158,-0.0174,-0.0173,-0.0173,-0.0142,-0.0141,-0.0141,0,0,0,0,0,0,-0.0183,-0.0182,-0.0173,-0.0177,-0.0176,-0.0178,-0.0175,-0.0176,-0.0174,-0.0175,-0.0176,-0.0177,-0.0176,-0.0175,-0.0166,-0.0159,-0.0173,-0.0172,-0.0142,-0.0142,-0.0141,-0.0128,0,0,0,0,0,0,-0.0183,-0.0182,-0.0177,-0.0177,-0.0176,-0.0165,-0.0175,-0.0176,-0.0173,-0.0174,-0.0173,-0.0174,-0.0176,-0.0167,-0.0165,-0.0158,-0.0172,-0.0143,-0.0142,-0.0141,-0.0129,-0.0127,-0.0125,0,0,0,0,0,-0.0184,-0.0174,-0.0177,-0.0176,-0.0171,-0.0164,-0.0164,-0.0167,-0.0173,-0.0168,-0.0169,-0.0174,-0.016,-0.0166,-0.0164,-0.0157,-0.0143,-0.0142,-0.0141,-0.013,-0.0127,-0.0125,0,0,0,0,0,0,-0.0172,-0.0174,-0.0177,-0.0167,-0.0166,-0.0166,-0.016,-0.0164,-0.0161,-0.0162,-0.0166,-0.0166,-0.0156,-0.0156,-0.0162,-0.0144,-0.0153,-0.0151,-0.0144,-0.0142,-0.014,-0.014,-0.0171,0,0,0,0,0,-0.0169,-0.0164,-0.0165,-0.0156,-0.0155,-0.0158,-0.0155,-0.0158,-0.0157,-0.0156,-0.0156,-0.0154,-0.0149,-0.0146,-0.0141,-0.0129,-0.0129,-0.0123,-0.0121,-0.012,-0.0118,-0.011,-0.0108,-0.0137,-0.0137,-0.0137,0,0,-0.0161,-0.0161,-0.0158,-0.0154,-0.0153,-0.0147,-0.0157,-0.0151,-0.0147,-0.0155,-0.0146,-0.0146,-0.0144,-0.0133,-0.0129,-0.0133,-0.011,-0.0118,-0.0117,-0.0116,-0.0109,-0.0106,-0.0104,-0.0136,-0.0136,-0.0136,0,0,-0.0144,-0.0144,-0.0136,-0.0135,-0.0134,-0.0136,-0.0134,-0.0133,-0.0134,-0.0125,-0.0131,-0.0126,-0.0118,-0.0116,-0.0114,-0.0096,-0.01,-0.0095,-0.0083,-0.0076,-0.0074,-0.0072,-0.0064,-0.0061,-0.0093,-0.0093,-0.0093,0,-0.0135,-0.0127,-0.0132,-0.0125,-0.0122,-0.013,-0.0121,-0.012,-0.0117,-0.0115,-0.012,-0.011,-0.0109,-0.0097,-0.0093,-0.0092,-0.0089,-0.0094,-0.0074,-0.0072,-0.007,-0.0063,-0.006,-0.0092,-0.0092,-0.0092,-0.0093,0,-0.0114,-0.0109,-0.0103,-0.01,-0.0097,-0.0089,-0.0092,-0.0089,-0.0092,-0.0093,-0.0084,-0.0084,-0.0079,-0.0077,-0.008,-0.0065,-0.0067,-0.0073,-0.0081,-0.0066,-0.0059,-0.0057,-0.0091,-0.0092,-0.0092,-0.0092,0,0,-0.0089,-0.0089,-0.0087,-0.0085,-0.0084,-0.008,-0.0072,-0.0068,-0.0064,-0.0062,-0.0055,-0.0049,-0.0054,-0.0051,-0.0054,-0.0048,-0.0032,-0.0054,-0.0054,-0.0049,-0.0015,-0.0009,-0.0006,-0.0036,-0.0035,-0.0035,-0.0014,0,-0.0071,-0.0059,-0.0063,-0.005,-0.0044,-0.0051,-0.0045,-0.0043,-0.0044,-0.0039,-0.004,-0.0035,-0.0042,-0.0041,-0.0035,-0.0035,-0.0025,-0.0037,-0.0028,-0.0028,-0.0027,-0.0003,0.0003,0.0022,-0.0012,-0.0011,-0.0011,0,-0.0049,-0.0046,-0.0032,-0.0031,-0.0029,-0.0023,-0.0019,-0.0015,-0.0013,-0.0014,-0.0011,-0.0015,-0.0008,-0.0017,-0.0006,-0.0014,-0.001,-0.001,-0.0009,-0.0007,-0.0017,0.0001,0.0028,0.0032,-0.0007,-0.0008,-0.0008,0,-0.003,-0.0023,-0.0013,-0.0012,-0.0011,-0.0007,-0.0006,-0.0005,-0.0002,0.0002,0.0004,0.0008,0.0011,0.0014,0.0012,0.0005,0.0024,0.0014,0.0024,0.0025,0.003,0.003,0.0059,0.003,0.0029,0.0029,0.0029,0,-0.0008,0.0001,-0.0004,0.0002,0.0012,0.0007,0.0017,0.0017,0.0018,0.0024,0.0017,0.0024,0.0019,0.0025,0.0022,0.0033,0.0034,0.0034,0.0034,0.0035,0.0036,0.0039,0.0038,0.003,0.003,0.003,0.003,0,0.0015,0.0012,0.0022,0.0021,0.0021,0.0029,0.0029,0.0035,0.0033,0.0041,0.0043,0.004,0.0047,0.0044,0.0051,0.0049,0.0063,0.006,0.0063,0.0063,0.0074,0.0074,0.0108,0.0112,0.0078,0.0078,0.0078,0,0.003,0.0036,0.0037,0.004,0.0041,0.0047,0.005,0.0045,0.0049,0.0052,0.0057,0.0063,0.0068,0.0079,0.0078,0.0083,0.0081,0.0093,0.0082,0.0084,0.0084,0.0084,0.0085,0.0096,0.0096,0.0096,0.0097,0,0.0057,0.0055,0.0059,0.0064,0.0068,0.0071,0.0073,0.0077,0.0072,0.0077,0.0083,0.0087,0.0094,0.01,0.0105,0.0106,0.0101,0.01,0.0103,0.0106,0.0108,0.0108,0.0071,0.0099,0.0099,0.0099,0.0099,0.0099,0.0077,0.0083,0.0085,0.009,0.0092,0.0094,0.01,0.0099,0.0104,0.011,0.0106,0.0114,0.0116,0.0122,0.0124,0.013,0.0126,0.013,0.0131,0.0133,0.0135,0.0105,0.0131,0.0131,0.0131,0.0131,0.0131,0,0.0105,0.0106,0.0111,0.0115,0.0119,0.0113,0.0116,0.0121,0.0128,0.013,0.0134,0.0142,0.0148,0.0148,0.0154,0.0159,0.0157,0.0161,0.0161,0.0162,0.0138,0.0135,0.0162,0.0162,0.0162,0.0162,0.0162,0.0162,0.012,0.0131,0.0129,0.0141,0.0141,0.0149,0.0151,0.0154,0.0155,0.0164,0.0169,0.0169,0.017,0.0176,0.0182,0.0181,0.0185,0.019,0.0189,0.0167,0.0163,0.0161,0.0158,0.019,0.019,0.0213,0.0213,0.0213]},{"header":{"parameterUnit":"m.s-1","parameterCategory":1,"la1":30.2991,"la2":30.254,"lo1":-89.0895,"lo2":-89.0444,"dy":0.0017,"dx":0.0017,"nx":28,"ny":28,"refTime":"2024-04-23T03:00:00:Z","depth":0,"parameterNumber":3,"parameterNumberName":"V-component_of_WINDS"},"data":[0,0,0,0,0,0,0,0,0,0,0,0,0,0,0,0,0,0,0,0,0,0,0,0,0,0,0,0,0,0,0,0,0,0,0,0,0,0,0,0,0,0,0,0,0,0,0,0,0,0,0,0,0,0,0,0,0,0,-0.6604,-0.6605,0,-0.6703,-0.6704,-0.6705,-0.6775,-0.6775,-0.6776,-0.6776,-0.6873,-0.6876,-0.6878,0,0,0,0,0,0,0,0,0,0,0,0,0,-0.6472,-0.6474,-0.6604,-0.6605,-0.6606,-0.6703,-0.6704,-0.6705,-0.6774,-0.6775,-0.6776,-0.6776,-0.6873,-0.6875,-0.6878,0,0,0,0,0,0,0,0,0,0,0,0,0,-0.6546,-0.6475,-0.6604,-0.6653,-0.6658,-0.6703,-0.6704,-0.6706,-0.6774,-0.6775,-0.6776,-0.6777,-0.6872,-0.6875,-0.6878,-0.6881,0,0,-0.6888,-0.6889,0,0,0,0,0,0,0,0,-0.6542,-0.6551,-0.6644,-0.6649,-0.6655,-0.6727,-0.6693,-0.6764,-0.6774,-0.673,-0.6776,-0.6777,-0.6824,-0.6831,-0.6848,-0.6885,-0.689,-0.6888,-0.689,-0.6891,-0.6892,0,0,0,0,0,0,0,-0.6536,-0.6547,-0.6643,-0.6645,-0.6652,-0.6669,-0.668,-0.6707,-0.6771,-0.6734,-0.6739,-0.675,-0.6827,-0.6844,-0.685,-0.6891,-0.6888,-0.6891,-0.6893,-0.6894,-0.6937,-0.6937,0,0,0,0,0,0,-0.6524,-0.6542,-0.664,-0.6646,-0.6599,-0.667,-0.6683,-0.6703,-0.6771,-0.6782,-0.6749,-0.6753,-0.6839,-0.6847,-0.6854,-0.6862,-0.6891,-0.6894,-0.6896,-0.6938,-0.6937,-0.6936,0,0,0,0,0,0,-0.6521,-0.6532,-0.6636,-0.6596,-0.661,-0.6672,-0.6694,-0.6705,-0.6722,-0.6783,-0.6794,-0.6755,-0.684,-0.685,-0.6874,-0.6866,-0.6895,-0.6898,-0.6939,-0.6938,-0.6937,-0.6878,0,0,0,0,0,0,-0.6517,-0.6531,-0.6533,-0.6595,-0.6612,-0.6655,-0.6693,-0.6706,-0.6728,-0.6734,-0.6791,-0.6802,-0.6841,-0.6869,-0.6877,-0.6871,-0.6901,-0.694,-0.6938,-0.6937,-0.688,-0.6875,-0.687,0,0,0,0,0,-0.6512,-0.6511,-0.6532,-0.6544,-0.6616,-0.6654,-0.6664,-0.671,-0.6727,-0.6729,-0.6768,-0.68,-0.6867,-0.6871,-0.6881,-0.6876,-0.694,-0.6939,-0.6937,-0.6883,-0.6876,-0.687,0,0,0,0,0,0,-0.6444,-0.652,-0.6544,-0.6564,-0.6602,-0.6666,-0.667,-0.6701,-0.6734,-0.6738,-0.6793,-0.6806,-0.6824,-0.6853,-0.6857,-0.6883,-0.6907,-0.6908,-0.6863,-0.6857,-0.6851,-0.6843,-0.6903,0,0,0,0,0,-0.6431,-0.6457,-0.6522,-0.6532,-0.6551,-0.6607,-0.6625,-0.6658,-0.6699,-0.6715,-0.6756,-0.6794,-0.6824,-0.6842,-0.6873,-0.6886,-0.6899,-0.6887,-0.6882,-0.6877,-0.6876,-0.6885,-0.6881,-0.6931,-0.6931,-0.6931,0,0,-0.6405,-0.645,-0.6462,-0.652,-0.6554,-0.6578,-0.662,-0.6644,-0.6662,-0.6719,-0.6745,-0.6776,-0.6822,-0.6841,-0.6852,-0.6865,-0.6866,-0.6875,-0.6871,-0.6872,-0.6883,-0.6878,-0.6874,-0.693,-0.693,-0.693,0,0,-0.6369,-0.6406,-0.642,-0.6453,-0.6504,-0.6542,-0.6545,-0.6605,-0.6629,-0.6656,-0.6699,-0.6722,-0.6772,-0.6803,-0.6826,-0.6805,-0.6835,-0.6814,-0.6784,-0.6793,-0.6789,-0.6786,-0.6778,-0.6775,-0.6813,-0.6813,-0.6813,0,-0.6329,-0.6369,-0.6422,-0.6444,-0.6468,-0.6523,-0.6537,-0.6566,-0.6624,-0.6639,-0.6655,-0.672,-0.6755,-0.6782,-0.6777,-0.6794,-0.6799,-0.6806,-0.6786,-0.6783,-0.6781,-0.6774,-0.6771,-0.681,-0.681,-0.681,-0.6811,0,-0.6318,-0.6345,-0.6349,-0.6406,-0.6431,-0.6448,-0.6503,-0.6522,-0.6554,-0.659,-0.6617,-0.6662,-0.6703,-0.6712,-0.6742,-0.6744,-0.6751,-0.6776,-0.6801,-0.6772,-0.6767,-0.6764,-0.6805,-0.6806,-0.6807,-0.6808,0,0,-0.6239,-0.6327,-0.6327,-0.6354,-0.6416,-0.6438,-0.6458,-0.65,-0.6515,-0.6554,-0.6572,-0.6614,-0.6638,-0.6663,-0.6698,-0.6706,-0.6687,-0.673,-0.6732,-0.6719,-0.6691,-0.6672,-0.6668,-0.6708,-0.6708,-0.6708,-0.6687,0,-0.6212,-0.6252,-0.6302,-0.6325,-0.6351,-0.6405,-0.6423,-0.6462,-0.6497,-0.6524,-0.6562,-0.6591,-0.662,-0.6636,-0.6647,-0.6687,-0.6682,-0.6689,-0.6724,-0.6725,-0.6709,-0.6665,-0.6644,-0.6622,-0.6686,-0.6685,-0.6685,0,-0.6185,-0.6223,-0.6249,-0.6311,-0.6323,-0.6339,-0.6382,-0.6407,-0.6453,-0.6478,-0.6508,-0.6546,-0.657,-0.6595,-0.6629,-0.6633,-0.665,-0.6673,-0.6673,-0.6676,-0.6702,-0.6666,-0.6616,-0.6612,-0.6682,-0.6682,-0.6683,0,-0.6123,-0.6181,-0.6205,-0.6227,-0.6299,-0.6308,-0.6339,-0.6386,-0.6409,-0.6447,-0.6462,-0.6501,-0.6522,-0.6552,-0.66,-0.6613,-0.6628,-0.6657,-0.6649,-0.6647,-0.6648,-0.6646,-0.6598,-0.6661,-0.6662,-0.6662,-0.6662,0,-0.6087,-0.61,-0.6179,-0.6193,-0.621,-0.6267,-0.6283,-0.6318,-0.636,-0.6382,-0.6431,-0.645,-0.6513,-0.654,-0.6577,-0.6599,-0.6609,-0.6629,-0.6638,-0.6624,-0.6621,-0.6634,-0.6637,-0.6661,-0.6661,-0.6661,-0.6661,0,-0.602,-0.6073,-0.6102,-0.617,-0.6187,-0.6196,-0.6254,-0.627,-0.6309,-0.6336,-0.6345,-0.6406,-0.644,-0.6492,-0.6541,-0.6566,-0.6582,-0.6598,-0.6566,-0.6572,-0.6561,-0.656,-0.6518,-0.6515,-0.6581,-0.658,-0.658,0,-0.5992,-0.6004,-0.6074,-0.6093,-0.6122,-0.6152,-0.6176,-0.6233,-0.6256,-0.6311,-0.632,-0.6359,-0.6392,-0.6444,-0.6492,-0.653,-0.6547,-0.653,-0.6553,-0.6538,-0.6546,-0.6544,-0.6545,-0.6523,-0.6523,-0.6522,-0.6521,0,-0.5936,-0.5963,-0.5996,-0.604,-0.6067,-0.6104,-0.6142,-0.6155,-0.6221,-0.6244,-0.6281,-0.6307,-0.6358,-0.6396,-0.6441,-0.6472,-0.6507,-0.6514,-0.6514,-0.6498,-0.6478,-0.6488,-0.655,-0.6514,-0.6515,-0.6515,-0.6516,-0.6516,-0.5887,-0.5901,-0.5953,-0.5989,-0.6025,-0.606,-0.6079,-0.6122,-0.6154,-0.6201,-0.6233,-0.6268,-0.6316,-0.638,-0.641,-0.6437,-0.6452,-0.6452,-0.6452,-0.6451,-0.6445,-0.6476,-0.6446,-0.6446,-0.6447,-0.6447,-0.6447,0,-0.5833,-0.587,-0.5903,-0.5957,-0.5985,-0.6019,-0.6065,-0.6086,-0.6116,-0.6159,-0.6192,-0.6234,-0.6271,-0.6324,-0.6365,-0.6377,-0.6394,-0.6385,-0.6384,-0.639,-0.643,-0.6425,-0.6371,-0.6371,-0.6371,-0.6371,-0.6371,-0.6371,-0.5808,-0.5834,-0.5867,-0.5911,-0.5947,-0.5983,-0.6006,-0.6039,-0.6074,-0.6119,-0.6151,-0.6186,-0.6233,-0.6278,-0.6314,-0.6328,-0.634,-0.6326,-0.6345,-0.6381,-0.6388,-0.6394,-0.639,-0.6329,-0.6329,-0.6304,-0.6303,-0.6303]}]]